Home   Weather   Camrose   Past weeks

Flag for Canada Past Weather in Camrose, Alberta, Canada — Yesterday and Last 2 Weeks

Now
-11 °F

Light snow. Ice fog.


Feels Like: -11 °F
Forecast: -16 / -8 °F
Wind: 2 mph from Northwest

Location: Edmonton International

Current Time: Dec 8, 2016 at 9:30:22 am

Latest Report: Dec 8, 2016 at 9:00 am


Visibility: 2 mi

Pressure: 30.93 "Hg (27.93 "Hg at 744m altitude)

Humidity: 76%

Dew Point: -17 °F

Location of CamroseLocation

Past Weather in Camrose — Graph

°F

Camrose Temperature Yesterday

Maximum temperature yesterday: 0 °F (at 3:00 pm)
Minimum temperature yesterday: -11 °F (at 7:00 pm)
Average temperature yesterday: -6 °F

High & Low Weather Summary for the Past Weeks

 TemperatureHumidityPressure
High39 °F (Nov 25, 11:00 am)100% (Nov 27, 11:00 am)30.94 "Hg (Nov 27, 11:00 am)
Low-17 °F (Dec 8, 2:00 am)52% (Dec 3, 6:02 pm)29.46 "Hg (Nov 27, 3:00 pm)
Average17 °F84%30.02 "Hg
* Reported Nov 23 8:00 am — Dec 8 8:00 am, Camrose, Weather by CustomWeather, © 2016

Note: Actual official high and low records may vary slightly from our data, if they occured in-between our weather recording intervals... More about our weather records

Advertising

Camrose Weather History for the Previous 24 Hours

Scroll right to see more
 ConditionsComfort  
Time TempWeatherWind HumidityBarometerVisibility
8:00 am
Thu, Dec 8
-13 °FSnow flurries. Ice fog.2 mph76%30.93 "Hg2 mi
7:00 am-13 °FLight snow. Ice fog.No wind76%30.94 "Hg1 mi
6:49 am-13 °FLight snow. Ice fog.No wind76%30.93 "Hg1 mi
6:00 am-13 °FLight snow. Ice fog.2 mph76%30.93 "Hg1 mi
5:00 am-15 °FSnow flurries. Passing clouds.2 mph76%30.93 "Hg1 mi
4:00 am-17 °FSnow flurries. Partly cloudy.No wind76%30.94 "Hg3 mi
3:00 am-15 °FSnow flurries. Partly cloudy.No wind76%30.94 "Hg2 mi
2:00 am-17 °FSnow flurries. Passing clouds.No wind76%30.94 "Hg1 mi
1:00 am-13 °FSnow flurries. Passing clouds.No wind76%30.94 "Hg3 mi
12:00 am-11 °FSnow flurries. Passing clouds.2 mph76%30.93 "Hg8 mi
11:00 pm
Wed, Dec 7
-11 °FLight snow. Passing clouds.2 mph76%30.93 "Hg15 mi
10:00 pm-11 °FLight snow. Partly cloudy.3 mph76%30.93 "Hg15 mi
9:00 pm-11 °FLight snow. Passing clouds.3 mph76%30.92 "Hg15 mi
8:00 pm-11 °FLight snow. Partly cloudy.No wind84%30.92 "Hg15 mi
7:00 pm-11 °FLight snow. Partly cloudy.3 mph76%30.91 "Hg15 mi
6:00 pm-8 °FPassing clouds.5 mph70%30.91 "Hg15 mi
5:00 pm-6 °FPassing clouds.6 mph70%30.89 "Hg15 mi
4:00 pm-4 °FScattered clouds.6 mph71%30.88 "Hg15 mi
3:00 pm0 °FPartly sunny.8 mph65%30.86 "Hg15 mi
2:00 pm-2 °FLight snow. Partly sunny.10 mph65%30.86 "Hg12 mi
1:00 pm-2 °FLight snow. Partly sunny.10 mph65%30.85 "Hg12 mi
12:00 pm-2 °FLight snow. Partly sunny.9 mph71%30.85 "Hg5 mi
11:00 am-4 °FLight snow. Broken clouds.9 mph71%30.85 "Hg7 mi
10:00 am-6 °FLight snow. Partly sunny.9 mph77%30.84 "Hg8 mi
9:00 am-6 °FLight snow. Partly sunny.7 mph70%30.82 "Hg12 mi
Weather by CustomWeather, © 2016

See weather overviewHow to use our weather pages